Location: *
(42.3442°N, 9.2072°E)
Time: 03:32:54
(UTC+00:00)

Cosmos 2341 Rocket - Pass Details

Date: 09 April 2020
Orbit: 968 x 1004 km, 82.9° (Epoch: 02 June)

Event Time Altitude Azimuth Distance (km) Brightness Sun altitude
Rises 18:59:38 0° 358° (N) 3,736 7.4 -11.6°
Reaches altitude 10° 19:02:20 10° 5° (N) 2,785 6.6 -12.1°
Maximum altitude 19:08:24 44° 76° (ENE) 1,365 4.4 -13.1°
Enters shadow 19:13:30 15° 144° (SE) 2,453 5.6 -14.0°
